This demonstration page uses our WeatherBlox Daily Observations layout. Learn more.

Left ArrowRight Arrow

Hourly Observations for June 8, 2017

Temp ( °F °C ) Dew Point ( °F °C ) Humidity (%) Winds ( mph kmh ) Pressure ( in mb ) Visibility ( mi km ) Precip ( " mm )
12:15 am 00:15 Clear 67 19.5 50 10.1 55 55 SSE 9 15 30 1016 10 16.0934 0 0
12:35 am 00:35 Clear 67 19.3 50 9.8 54 54 SSE 10 17 29.97 1015 10 16.0934 0 0
12:55 am 00:55 Clear 67 19.4 49 9.2 52 52 SSE 10 17 30 1016 10 16.0934 0 0
1:15 am 01:15 Mostly Cloudy 67 19.2 48 9.1 52 52 SSE 10 17 30 1016 10 16.0934 0 0
1:35 am 01:35 Cloudy 67 19.2 48 9 52 52 SSE 9 15 30 1016 10 16.0934 0 0
1:55 am 01:55 Cloudy 66 18.8 48 9 53 53 SSE 9 15 30 1016 10 16.0934 0 0
2:15 am 02:15 Partly Cloudy 65 18.6 47 8.4 52 52 S 12 19 30 1016 10 16.0934 0 0
2:35 am 02:35 Clear 64 18 47 8.5 54 54 SSE 10 17 29.97 1015 10 16.0934 0 0
2:55 am 02:55 Clear 64 17.5 48 8.8 57 57 SSE 8 13 29.97 1015 10 16.0934 0 0
3:15 am 03:15 Mostly Cloudy 64 17.5 48 8.8 57 57 SSE 6 9 29.97 1015 10 16.0934 0 0
3:35 am 03:35 Cloudy 63 17.4 48 9 58 58 SSE 7 11 29.97 1015 10 16.0934 0 0
3:55 am 03:55 Cloudy 63 17.1 48 9.1 60 60 SSE 6 9 29.97 1015 10 16.0934 0 0
4:15 am 04:15 Cloudy 62 16.9 48 9.1 60 60 SSE 10 17 29.97 1015 10 16.0934 0 0
4:35 am 04:35 Cloudy 62 16.9 48 9.1 60 60 SSE 7 11 29.97 1015 10 16.0934 0 0
4:55 am 04:55 Mostly Cloudy 62 16.6 48 9.1 61 61 SSE 8 13 29.97 1015 10 16.0934 0 0
5:15 am 05:15 Partly Cloudy 61 16.1 49 9.2 64 64 SSE 8 13 30 1016 10 16.0934 0 0
5:35 am 05:35 Clear 61 15.9 49 9.2 65 65 SSE 8 13 30 1016 10 16.0934 0 0
5:55 am 05:55 Clear 61 16 49 9.3 65 65 SSE 9 15 30 1016 10 16.0934 0 0
6:15 am 06:15 Sunny 61 16 49 9.5 66 66 SSE 8 13 30 1016 10 16.0934 0 0
6:35 am 06:35 Sunny 61 16 49 9.5 66 66 SSE 8 13 30 1016 10 16.0934 0 0
6:55 am 06:55 Sunny 61 16 49 9.6 66 66 SSE 8 13 30 1016 10 16.0934 0 0
7:15 am 07:15 Sunny 61 16.2 50 9.8 66 66 S 7 11 30 1016 10 16.0934 0 0
7:35 am 07:35 Sunny 62 16.7 50 10.1 65 65 S 8 13 29.97 1015 10 16.0934 0 0
7:55 am 07:55 Sunny 63 17.2 51 10.5 65 65 S 7 11 29.97 1015 10 16.0934 0 0
8:15 am 08:15 Sunny 64 18 52 11 64 64 S 7 11 29.97 1015 10 16.0934 0 0
8:35 am 08:35 Sunny 66 19 53 11.5 62 62 S 8 13 29.97 1015 10 16.0934 0 0
8:55 am 08:55 Sunny 68 20 54 12.2 61 61 SSW 7 11 29.94 1014 10 16.0934 0 0
9:15 am 09:15 Sunny 69 20.4 55 12.5 61 61 S 3 6 29.94 1014 10 16.0934 0 0
9:35 am 09:35 Partly Cloudy 71 21.5 56 13.2 59 59 SW 5 7 29.94 1014 10 16.0934 0 0
9:55 am 09:55 Partly Cloudy 72 22.2 56 13.4 58 58 SSW 6 9 29.91 1013 10 16.0934 0 0
10:15 am 10:15 Sunny 73 23 57 13.9 57 57 SSE 3 6 29.91 1013 10 16.0934 0 0
10:35 am 10:35 Sunny 75 23.9 57 14 54 54 S 3 6 29.88 1012 10 16.0934 0 0
10:55 am 10:55 Partly Cloudy 76 24.6 56 13.3 49 49 SE 3 6 29.88 1012 10 16.0934 0 0
11:15 am 11:15 Partly Cloudy 77 25.1 55 13 47 47 S 3 6 29.88 1012 10 16.0934 0 0
11:35 am 11:35 Sunny 78 25.5 56 13.1 46 46 Calm 29.88 1012 10 16.0934 0 0
11:55 am 11:55 Sunny 79 25.9 55 12.8 44 44 S 7 11 29.88 1012 10 16.0934 0 0
12:15 pm 12:15 Sunny 80 26.4 55 12.7 43 43 S 6 9 29.88 1012 10 16.0934 0 0
12:35 pm 12:35 Sunny 80 26.5 55 12.9 43 43 SW 6 9 29.88 1012 10 16.0934 0 0
12:55 pm 12:55 Partly Cloudy 80 26.8 55 12.8 42 42 WSW 3 6 29.83 1010 10 16.0934 0 0
1:15 pm 13:15 Mostly Cloudy 80 26.8 55 13 43 43 SSW 9 15 29.83 1010 10 16.0934 0 0
1:35 pm 13:35 Mostly Cloudy 81 27.2 57 13.7 43 43 SSE 13 20 29.83 1010 10 16.0934 0 0
1:55 pm 13:55 Partly Cloudy 81 27.3 56 13.3 42 42 SSE 8 13 29.83 1010 10 16.0934 0 0
2:15 pm 14:15 Mostly Cloudy 81 27.1 56 13.3 43 43 S 12 19 29.83 1010 10 16.0934 0 0
2:35 pm 14:35 Mostly Cloudy 82 27.9 57 14.1 43 43 SSW 7 11 29.8 1009 10 16.0934 0 0
2:55 pm 14:55 Cloudy 82 27.9 57 14.1 43 43 SSW 12 19 29.8 1009 10 16.0934 0 0
3:15 pm 15:15 Cloudy 82 27.7 57 13.9 43 43 S 9 15 29.8 1009 10 16.0934 0 0
3:35 pm 15:35 Cloudy 82 27.8 57 13.9 42 42 S 8 13 29.8 1009 10 16.0934 0 0
3:55 pm 15:55 Cloudy 80 26.9 57 13.7 44 44 SSE 14 22 29.8 1009 10 16.0934 0 0
4:15 pm 16:15 Cloudy 81 27 56 13.3 43 43 S 13 20 29.8 1009 10 16.0934 0 0
4:35 pm 16:35 Cloudy 82 27.9 54 12.1 38 38 S 13 20 29.77 1008 10 16.0934 0 0
4:55 pm 16:55 Partly Cloudy 81 27.3 51 10.6 35 35 SSW 9 15 29.77 1008 10 16.0934 0 0
5:15 pm 17:15 Partly Cloudy 83 28.3 55 12.6 38 38 SSW 10 17 29.77 1008 10 16.0934 0 0
5:35 pm 17:35 Mostly Cloudy 83 28.5 55 12.7 38 38 SSW 15 24 29.77 1008 10 16.0934 0 0
5:55 pm 17:55 Cloudy 83 28.2 55 13 39 39 S 12 19 29.74 1007 10 16.0934 0 0
6:15 pm 18:15 Mostly Cloudy 82 28 55 12.7 39 39 SSW 16 26 29.74 1007 10 16.0934 0 0
6:35 pm 18:35 Partly Cloudy 82 28 55 12.5 38 38 S 10 17 29.74 1007 10 16.0934 0 0
6:55 pm 18:55 Sunny 81 27.4 55 12.5 40 40 SSW 10 17 29.74 1007 10 16.0934 0 0
7:15 pm 19:15 Sunny 81 27.1 55 13 42 42 SSW 13 20 29.74 1007 10 16.0934 0 0
7:35 pm 19:35 Sunny 81 27 56 13.1 42 42 S 14 22 29.74 1007 10 16.0934 0 0
7:55 pm 19:55 Sunny 80 26.5 56 13.1 44 44 SSW 14 22 29.74 1007 10 16.0934 0 0
8:15 pm 20:15 Sunny 79 26 55 13 45 45 S 12 19 29.74 1007 10 16.0934 0 0
8:35 pm 20:35 Sunny 78 25.5 55 13 46 46 S 9 15 29.8 1009 10 16.0934 0 0
8:55 pm 20:55 Sunny 77 24.8 56 13.4 49 49 S 9 15 29.8 1009 10 16.0934 0 0
9:15 pm 21:15 Clear 75 23.9 56 13.5 52 52 S 9 15 29.8 1009 10 16.0934 0 0
9:35 pm 21:35 Clear 74 23.2 57 13.7 55 55 S 8 13 29.77 1008 10 16.0934 0 0
9:55 pm 21:55 Clear 72 22.4 57 14 59 59 S 9 15 29.77 1008 10 16.0934 0 0
10:15 pm 22:15 Clear 71 21.8 58 14.2 62 62 S 6 9 29.8 1009 10 16.0934 0 0
10:35 pm 22:35 Clear 71 21.6 58 14.3 63 63 S 6 9 29.83 1010 10 16.0934 0 0
10:55 pm 22:55 Clear 71 21.5 58 14.5 65 65 S 9 15 29.83 1010 10 16.0934 0 0
11:15 pm 23:15 Clear 70 20.9 58 14.3 66 66 S 8 13 29.83 1010 10 16.0934 0 0
11:35 pm 23:35 Clear 69 20.5 58 14.5 69 69 S 9 15 29.83 1010 10 16.0934 0 0
11:55 pm 23:55 Clear 68 20.1 58 14.5 70 70 S 12 19 29.83 1010 10 16.0934 0 0

Powered by AerisWeather